DateTimeUTC,F1_A11,F1_S11,BsB_S11,BsG_S11,BsR_S11,BbsB_S11,BbsG_S11,BbsR_S11,BaB_A11,BaG_A11,BaR_A11,Tu_S11,T_S11,Uu_S11,U_S11,P_S11,T1_A11
2021-08-21T18:00:00Z,00000200,20000000,,,,,,,-000.18,-000.14,0000.21,20.1,26.7,09.5,06.4,0677.7,31.1
2021-08-21T18:01:00Z,00000200,20000000,,,,,,,-000.07,0000.16,-000.21,20.1,26.7,09.4,06.3,0677.7,31.1
2021-08-21T18:02:00Z,00000200,20000000,,,,,,,0000.02,0000.12,-000.12,20.1,26.7,09.4,06.3,0677.7,31.1
2021-08-21T18:03:00Z,00000200,60000000,,,,,,,0000.55,-000.02,0000.79,20.1,26.7,09.4,06.3,0677.7,31.1
2021-08-21T18:04:00Z,00000200,40000000,0002.76,0002.08,0001.56,0000.56,0000.33,0000.38,0000.53,0000.94,0000.29,20.2,26.6,09.4,06.4,0678.7,31.1
2021-08-21T18:05:00Z,00000200,00000000,0002.56,0002.22,0001.52,0000.98,0000.61,0000.15,0000.48,0000.57,0000.50,20.2,26.5,09.5,06.5,0678.7,31.1
2021-08-21T18:06:00Z,00000200,00000000,0002.95,0002.02,0001.35,0000.23,-000.07,0000.26,0000.68,0000.38,0000.09,20.2,26.5,09.5,06.5,0678.7,31.1
2021-08-21T18:07:00Z,00000200,00000000,0002.39,0002.39,0001.01,0000.97,-000.17,0000.21,0000.82,0000.84,0000.70,20.2,26.5,09.7,06.6,0678.7,31.1
2021-08-21T18:08:00Z,00000200,00000000,0003.24,0002.11,0001.38,0000.75,0000.58,0000.13,0000.94,0000.67,0000.64,20.2,26.5,09.7,06.6,0678.7,31.1
2021-08-21T18:09:00Z,00000200,00000000,0002.64,0001.88,0000.92,0001.11,0000.56,0000.24,0000.54,0000.65,0000.40,20.2,26.5,09.8,06.7,0678.7,31.1
2021-08-21T18:10:00Z,00000200,00000000,0003.25,0002.01,0000.87,-000.06,0000.08,0000.06,0000.82,0000.83,0000.32,20.2,26.5,09.9,06.8,0678.7,31.1
2021-08-21T18:11:00Z,00000200,00000000,0002.95,0001.60,0001.26,0000.95,0000.08,0000.40,0000.50,0000.36,0000.82,20.2,26.5,10.1,06.9,0678.7,31.1
2021-08-21T18:12:00Z,00000200,00000000,0002.29,0001.70,0001.36,0000.87,0000.34,0000.39,0000.19,0000.36,0000.33,20.2,26.5,10.1,06.9,0678.7,31.1
2021-08-21T18:13:00Z,00000200,00000000,0002.78,0002.85,0001.88,0000.68,0000.64,0000.45,0000.39,0000.13,0000.03,20.2,26.5,09.6,06.6,0678.7,31.1
2021-08-21T18:14:00Z,00000200,00000000,0003.60,0002.62,0001.59,0001.02,0000.24,0000.32,-000.03,0000.29,0000.27,20.2,26.5,09.3,06.4,0678.7,31.1
2021-08-21T18:15:00Z,00000200,00000000,0003.32,0002.36,0002.18,0001.02,0000.31,0000.10,0001.03,0000.78,0000.41,20.2,26.5,09.1,06.2,0678.7,31.1
2021-08-21T18:16:00Z,00000200,00000000,0004.11,0002.74,0001.70,0000.91,0000.39,0000.21,0001.32,0000.91,0000.98,20.2,26.5,09.2,06.3,0678.7,31.1
2021-08-21T18:17:00Z,00000200,00000000,0004.05,0002.94,0002.01,0000.99,0000.26,0000.19,0000.61,0000.58,0000.37,20.2,26.5,09.2,06.3,0678.6,31.1
2021-08-21T18:18:00Z,00000200,00000000,0002.87,0002.87,0001.67,0000.96,0000.40,0000.24,0000.59,0000.91,0000.58,20.2,26.5,09.3,06.4,0678.7,31.1
2021-08-21T18:19:00Z,00000200,00000000,0002.48,0002.52,0001.82,0000.73,0000.41,-000.17,0001.10,0000.90,0000.64,20.2,26.5,09.3,06.4,0678.7,31.1
2021-08-21T18:20:00Z,00000200,00000000,0003.32,0002.44,0001.60,0000.68,0000.44,0000.55,0000.85,0000.69,0000.56,20.2,26.5,09.4,06.4,0678.7,31.1
2021-08-21T18:21:00Z,00000200,00000000,0003.72,0002.28,0001.14,0000.47,0000.06,0000.25,0000.50,0000.59,0000.86,20.2,26.5,09.7,06.6,0678.7,31.1
2021-08-21T18:22:00Z,00000200,00000000,0003.29,0001.93,0001.41,0001.29,0000.34,0000.17,0000.89,0001.03,0000.46,20.2,26.5,09.9,06.8,0678.7,31.1
2021-08-21T18:23:00Z,00000200,00000000,0002.56,0001.26,0001.31,0000.45,-000.06,0000.43,0000.37,0000.57,0000.58,20.2,26.5,10.1,06.9,0678.7,31.1
2021-08-21T18:24:00Z,00000200,00000000,0002.06,0001.41,0000.77,0000.93,-000.02,0000.38,0001.16,0000.71,0000.36,20.2,26.5,10.2,07.0,0678.7,31.1
2021-08-21T18:25:00Z,00000200,00000000,0002.18,0001.46,0000.94,0000.75,0000.04,0000.15,-000.29,0000.11,0000.14,20.2,26.5,10.4,07.1,0678.7,31.1
2021-08-21T18:26:00Z,00000200,00000000,0001.85,0001.45,0001.20,0000.88,0000.34,-000.04,0000.88,0000.30,0000.28,20.2,26.5,10.3,07.0,0678.7,31.1
2021-08-21T18:27:00Z,00000200,00000000,0002.95,0001.83,0000.78,0000.79,0000.06,0000.38,0000.29,0000.26,-000.02,20.2,26.5,10.3,07.1,0678.7,31.1
2021-08-21T18:28:00Z,00000200,00000000,0003.59,0002.50,0001.58,0000.89,0000.32,0000.40,0000.02,0000.03,0000.40,20.2,26.5,09.8,06.7,0678.7,31.1
2021-08-21T18:29:00Z,00000200,00000000,0003.49,0002.53,0001.47,0000.67,0000.22,0000.35,0000.92,0000.89,0000.58,20.2,26.5,09.6,06.5,0678.7,31.1
2021-08-21T18:30:00Z,00000200,00000000,0004.40,0002.93,0001.77,0000.65,0000.62,0000.53,0000.31,0000.35,0000.41,20.2,26.4,09.5,06.5,0678.7,31.1
2021-08-21T18:31:00Z,00000200,00000000,0003.02,0002.46,0001.52,0000.04,0000.53,0000.18,0000.78,0001.13,0000.87,20.2,26.4,09.4,06.4,0678.7,31.1
2021-08-21T18:32:00Z,00000200,00000000,0002.65,0002.41,0001.43,0001.05,0000.48,0000.42,0000.68,0000.42,0000.21,20.2,26.4,09.7,06.6,0678.7,31.1
2021-08-21T18:33:00Z,00000200,00000000,0003.99,0002.94,0001.60,0001.46,0000.56,0000.41,0000.46,0000.22,0000.34,20.2,26.4,09.4,06.4,0678.7,31.1
2021-08-21T18:34:00Z,00000200,00000000,0003.66,0003.04,0001.97,0001.35,0000.34,0000.17,0000.77,0000.68,0000.76,20.2,26.4,09.2,06.3,0678.7,31.1
2021-08-21T18:35:00Z,00000200,00000000,0004.64,0003.30,0001.41,0000.62,0000.51,0000.28,0000.82,0001.01,0000.76,20.2,26.4,09.0,06.2,0678.7,31.1
2021-08-21T18:36:00Z,00000200,00000000,0002.67,0002.49,0001.53,0001.10,0000.39,0000.32,0001.24,0001.02,0001.10,20.2,26.4,09.5,06.5,0678.7,31.1
2021-08-21T18:37:00Z,00000200,00000000,0003.90,0002.47,0001.77,0000.61,0000.36,0000.21,0000.68,0000.42,-000.12,20.2,26.4,09.5,06.5,0678.7,31.1
2021-08-21T18:38:00Z,00000200,00000000,0002.42,0002.00,0001.59,0000.01,0000.07,0000.44,0000.96,0000.86,0000.64,20.2,26.4,09.6,06.6,0678.7,31.1
2021-08-21T18:39:00Z,00000200,00000000,0002.90,0002.48,0001.45,0000.79,0000.49,0000.15,0000.50,0000.40,0000.63,20.2,26.4,09.7,06.7,0678.7,31.1
2021-08-21T18:40:00Z,00000200,00000000,0002.72,0002.32,0001.45,0000.93,0000.15,-000.11,0000.47,0000.58,0000.20,20.2,26.4,09.6,06.6,0678.7,31.1
2021-08-21T18:41:00Z,00000200,00000000,0002.42,0001.82,0001.26,0000.77,0000.30,0000.39,0000.81,0001.12,0001.17,20.2,26.4,09.6,06.6,0678.7,31.1
2021-08-21T18:42:00Z,00000200,00000000,0003.25,0002.56,0001.26,0001.04,0000.30,0000.09,0001.04,0000.73,0000.38,20.2,26.4,09.9,06.8,0678.7,31.1
2021-08-21T18:43:00Z,00000200,00000000,0003.37,0002.13,0001.44,0000.86,0000.48,0000.27,0000.64,0000.58,0000.52,20.2,26.4,10.0,06.8,0678.7,31.1
2021-08-21T18:44:00Z,00000200,00000000,0002.78,0001.86,0001.57,0000.50,0000.15,0000.53,0000.64,0000.74,0000.22,20.2,26.4,09.9,06.8,0678.7,31.1
2021-08-21T18:45:00Z,00000200,00000000,0002.93,0002.07,0001.56,0000.66,0000.39,0000.56,0000.44,0000.31,0000.59,20.2,26.4,10.0,06.8,0678.7,31.1
2021-08-21T18:46:00Z,00000200,00000000,0002.81,0002.11,0001.16,-000.14,0000.23,0000.26,0000.99,0000.75,0000.65,20.2,26.4,09.9,06.7,0678.7,31.1
2021-08-21T18:47:00Z,00000200,00000000,0003.24,0002.48,0001.58,0000.62,0000.33,0000.52,-000.07,0000.53,-000.21,20.2,26.4,09.8,06.7,0678.7,31.1
2021-08-21T18:48:00Z,00000200,00000000,0003.32,0002.46,0001.57,0000.02,0000.22,0000.48,0000.69,0000.45,0000.67,20.2,26.4,09.7,06.7,0678.7,31.1
2021-08-21T18:49:00Z,00000200,00000000,0002.83,0002.16,0001.41,0000.70,0000.26,0000.27,0000.89,0000.59,0000.35,20.2,26.4,09.7,06.6,0678.7,31.1
2021-08-21T18:50:00Z,00000200,00000000,0002.75,0002.35,0001.13,0001.28,0000.39,0000.24,0000.69,0000.48,0000.55,20.2,26.4,09.7,06.7,0678.7,31.1
2021-08-21T18:51:00Z,00000200,00000000,0001.95,0002.39,0001.36,0000.38,0000.29,0000.27,0000.95,0000.78,0000.72,20.2,26.4,09.8,06.7,0678.7,31.1
2021-08-21T18:52:00Z,00000200,00000000,0002.23,0001.84,0001.01,0000.61,0000.34,0000.26,0001.17,0000.93,0001.01,20.2,26.4,10.0,06.9,0678.8,31.1
2021-08-21T18:53:00Z,00000200,00000000,0003.19,0001.97,0000.94,0000.51,0000.26,0000.56,0000.22,0000.64,0000.24,20.2,26.4,10.3,07.0,0678.7,31.1
2021-08-21T18:54:00Z,00000200,00000000,0002.70,0001.78,0000.99,0001.07,-000.03,0000.14,0000.73,0000.59,0000.29,20.2,26.4,10.3,07.0,0678.8,31.1
2021-08-21T18:55:00Z,00000200,00000000,0002.26,0001.82,0000.96,0000.69,0000.13,0000.10,0000.31,0000.21,0000.46,20.2,26.4,10.5,07.2,0678.7,31.1
2021-08-21T18:56:00Z,00000200,00000000,0002.02,0001.72,0000.79,0000.07,-000.01,0000.03,0000.60,0000.82,0000.60,20.2,26.4,10.7,07.3,0678.7,31.1
2021-08-21T18:57:00Z,00000200,40000000,,,,,,,-000.05,0000.06,0000.05,20.2,26.5,10.8,07.4,0678.7,31.1
2021-08-21T18:58:00Z,00000200,60000000,,,,,,,0000.33,-000.15,-000.20,20.0,26.5,10.5,07.0,0677.8,31.1
2021-08-21T18:59:00Z,00000200,20000000,,,,,,,-000.87,-000.31,-000.12,20.0,26.6,10.4,07.0,0677.7,31.1
